SL-8 R/B, 1589

Orbit data source: Space-Track

SL-8 R/B, 1589 is space debris in LEO originally from a launch on Sat, 18 Sep 1965 UTC launched from the Tyuratam Missile And Space Complex (TTMTR). Debris objects in space refer to the collection of defunct objects orbiting the Earth. Examples of debris include non-operational satellites, rocket bodies, and fragments generated from explosions, collisions, or faulty payload assembly.

Loading next visibility...
Identifier
1589, 1965-073F
Orbit
LEO
Country
Flag of CISCIS
Related business
Manufacturer
Yuzhnoe
Mission
Spacecraft
Bus & Motor
S3, Unknown motor
Mass
1,434 kg wet, 1,434 kg dry
Launch date (UTC)
1965-09-18 (60 years ago)
Launch vehicle
Unknown
Launch site
Tyuratam Missile And Space Complex (TTMTR)
Object type
Payload
Rocket body
Debris
Shape & HBR
Unknown
Radar Cross Section
Large (>1 m²)

Expand to show TLE details & history
Last TLE update: 10 hours ago

TLE from 10 hours ago
0 SL-8 R/B
1 01589U 65073F   25291.17212446 -.00000065  00000-0  20636-3 0  9992
2 01589  56.0539 345.9639 0160883  63.1269 330.6040 12.33052166705855
Epoch: 2025-10-18T04:07Z
TLE epoch observation values (Epoch: 2025-10-18T04:07:51.553Z)
Latitude
26.77635°
Longitude
-83.15286°
Altitude
1,427.208 km
Speed
7.2 km/s
True Right ascension
00h 22m 52s
True Declination
26° 39' 00"
Sunlit
Object was in full shadow at epoch
Visualization orbit readout
Latitude
Unknown
Longitude
Unknown
Altitude
Unknown
Speed
Unknown
Apparent Right ascension
Unknown
Apparent Declination
Unknown
Sunlit
N/A
Visualization observer readout
Local Sidereal Time
08:38:34
Azimuth
Unknown
Elevation
Unknown
Doppler factor
Unknown
Orbital elements
Apogee altitude
1,663.345 km
Perigee altitude
1,408.694 km
Semi-major axis
7,914.156 km
Eccentricity
0.01609
Inclination
56.0539°
RAAN
345.9639°
Arg. of periapsis
63.1269°
True anomaly
329.683°
Mean anomaly
330.604°
Eccentric anomaly
330.14513°
Mean motion
3.08274 °/min
Orbital period
116.78 mins
BSTAR
0.00020636
Loading maneuver chart data...
Computing Atmospheric mass density...
Loading historical data...
Loading historical data...
Loading historical data...
Loading historical data...
Loading historical data...
Loading historical data...
Loading historical data...

Documentation

Showing up to 5 results
|